Grand Rapids, MN

7:27 PM CST on February 05, 2016 (GMT -0600)
Grand Rapids-Itasca County-Newstrom Field

Weather History for KGPZ - July, 2014

Change the Weather History Date:

Saturday, July 12, 2014

  Actual Average Record
Temperature  
Mean Temperature 64 °F -  
Max Temperature 73 °F 80 °F - (-1)
Min Temperature 55 °F 56 °F - (-1)
Degree Days  
Heating Degree Days 1    
Growing Degree Days 14 (Base 50)    
Moisture  
Dew Point 55 °F    
Average Humidity 70    
Maximum Humidity 94    
Minimum Humidity 53    
Precipitation  
Precipitation 0.06 in - - ()
Sea Level Pressure  
Sea Level Pressure 29.97 in    
Wind  
Wind Speed 3 mph (West)    
Max Wind Speed 24 mph    
Max Gust Speed 39 mph    
Visibility 9 miles    
Events      
Averages and records for this station are not official NWS values.
T = Trace of Precipitation, MM = Missing Value Source: NWS Daily Summary

Daily Weather History Graph

Daily Weather History Graph

Search for Another Location

Airport or City:

Trip Planner

Search our weather history database for the weather conditions in past years. The results will help you decide how hot, cold, wet, or windy it might be!

Date:

Astronomy

Jul. 12, 2014 Rise Set
Actual Time 5:30 AM CDT 9:08 PM CDT
Civil Twilight 4:51 AM CDT 9:46 PM CDT
Nautical Twilight 3:59 AM CDT 10:38 PM CDT
Astronomical Twilight 2:48 AM CDT 11:49 PM CDT
Moon 9:02 PM CDT (7/12) 5:56 AM CDT (7/12)
Length of Visible Light 16h 55m
Length of Day
15h 37m
Full, 100% of the Moon is Illuminated
Jul 12
Full
Jul 18
Last Quarter
Jul 26
New
Aug 3
First Quarter
Aug 10
Full

Hourly Weather History & Observations

Time (CDT) Temp. Dew Point Humidity Pressure Visibility Wind Dir Wind Speed Gust Speed Precip Events Conditions
12:15 AM 66.2 °F 57.2 °F 73% 30.01 in 10.0 mi West 3.5 mph - N/A   Clear
12:35 AM 62.6 °F 57.2 °F 82% 30.01 in 10.0 mi West 3.5 mph - N/A   Clear
12:55 AM 62.6 °F 55.4 °F 77% 30.01 in 10.0 mi NNW 4.6 mph - N/A   Clear
1:15 AM 62.6 °F 57.2 °F 82% 30.01 in 10.0 mi NNW 3.5 mph - N/A   Clear
1:35 AM 62.6 °F 57.2 °F 82% 30.00 in 10.0 mi Calm Calm - N/A   Clear
1:55 AM 60.8 °F 55.4 °F 82% 30.00 in 10.0 mi NW 3.5 mph - N/A   Clear
2:15 AM 60.8 °F 55.4 °F 82% 30.00 in 10.0 mi Calm Calm - N/A   Clear
2:35 AM 60.8 °F 55.4 °F 82% 30.00 in 10.0 mi Calm Calm - N/A   Clear
2:55 AM 60.8 °F 55.4 °F 82% 30.01 in 10.0 mi Calm Calm - N/A   Clear
3:15 AM 57.2 °F 55.4 °F 94% 30.01 in 10.0 mi Calm Calm - N/A   Clear
3:35 AM 57.2 °F 55.4 °F 94% 30.01 in 10.0 mi Calm Calm - N/A   Clear
3:55 AM 57.2 °F 53.6 °F 88% 30.01 in 10.0 mi Calm Calm - N/A   Clear
4:15 AM 55.4 °F 53.6 °F 94% 30.01 in 10.0 mi Calm Calm - N/A   Clear
4:35 AM 57.2 °F 53.6 °F 88% 30.01 in 1.0 mi Calm Calm - N/A   Clear
4:55 AM 57.2 °F 55.4 °F 94% 30.02 in 1.0 mi Calm Calm - N/A   Clear
5:15 AM 57.2 °F 53.6 °F 88% 30.02 in 0.2 mi Calm Calm - N/A   Unknown
5:35 AM 55.4 °F 53.6 °F 94% 30.03 in 0.2 mi Calm Calm - N/A   Unknown
5:55 AM 55.4 °F 53.6 °F 94% 30.03 in 0.2 mi Calm Calm - N/A   Unknown
6:15 AM 55.4 °F 51.8 °F 88% 30.03 in 0.5 mi Calm Calm - N/A   Unknown
6:35 AM 55.4 °F 53.6 °F 94% 30.03 in 8.0 mi Calm Calm - N/A   Clear
6:55 AM 57.2 °F 55.4 °F 94% 30.04 in 10.0 mi Calm Calm - N/A   Clear
7:15 AM 60.8 °F 57.2 °F 88% 30.04 in 10.0 mi Calm Calm - N/A   Clear
7:35 AM 60.8 °F 57.2 °F 88% 30.03 in 10.0 mi NNW 3.5 mph - N/A   Clear
7:55 AM 64.4 °F 57.2 °F 77% 30.03 in 10.0 mi NNW 4.6 mph - N/A   Clear
8:15 AM 66.2 °F 55.4 °F 68% 30.04 in 10.0 mi Calm Calm - N/A   Clear
8:35 AM 66.2 °F 57.2 °F 73% 30.04 in 10.0 mi Calm Calm - N/A   Clear
8:55 AM 68.0 °F 57.2 °F 68% 30.04 in 10.0 mi Calm Calm - N/A   Clear
9:15 AM 69.8 °F 57.2 °F 64% 30.03 in 10.0 mi Calm Calm - N/A   Clear
9:35 AM 69.8 °F 55.4 °F 60% 30.04 in 10.0 mi Calm Calm - N/A   Clear
9:55 AM 69.8 °F 55.4 °F 60% 30.03 in 10.0 mi Calm Calm - N/A   Clear
10:15 AM 71.6 °F 53.6 °F 53% 30.03 in 10.0 mi Calm Calm - N/A   Clear
10:35 AM 71.6 °F 53.6 °F 53% 30.02 in 10.0 mi Calm Calm - N/A   Clear
10:55 AM 69.8 °F 53.6 °F 56% 30.01 in 10.0 mi Calm Calm - N/A   Clear
11:15 AM 69.8 °F 53.6 °F 56% 30.01 in 10.0 mi Calm Calm - N/A   Clear
11:35 AM 69.8 °F 53.6 °F 56% 30.01 in 10.0 mi Calm Calm - N/A   Clear
11:55 AM 71.6 °F 55.4 °F 57% 30.02 in 10.0 mi West 5.8 mph - N/A   Clear
12:15 PM 69.8 °F 53.6 °F 56% 30.01 in 10.0 mi WNW 3.5 mph - N/A   Clear
12:35 PM 69.8 °F 53.6 °F 56% 30.01 in 10.0 mi West 4.6 mph - N/A   Clear
12:55 PM 69.8 °F 55.4 °F 60% 30.00 in 10.0 mi SW 3.5 mph - N/A   Clear
1:15 PM 69.8 °F 55.4 °F 60% 29.99 in 10.0 mi WSW 4.6 mph - N/A   Clear
1:35 PM 71.6 °F 55.4 °F 57% 29.99 in 10.0 mi SW 5.8 mph - N/A   Clear
1:55 PM 71.6 °F 55.4 °F 57% 29.98 in 10.0 mi SW 9.2 mph - N/A   Partly Cloudy
2:15 PM 71.6 °F 55.4 °F 57% 29.98 in 10.0 mi West 5.8 mph - N/A   Partly Cloudy
2:35 PM 71.6 °F 55.4 °F 57% 29.97 in 10.0 mi WSW 6.9 mph - N/A   Partly Cloudy
2:55 PM 73.4 °F 57.2 °F 57% 29.97 in 10.0 mi SW 9.2 mph - N/A   Partly Cloudy
3:15 PM 71.6 °F 55.4 °F 57% 29.97 in 10.0 mi WSW 4.6 mph - N/A   Partly Cloudy
3:35 PM 71.6 °F 57.2 °F 60% 29.95 in 10.0 mi WSW 6.9 mph - N/A   Partly Cloudy
3:55 PM 73.4 °F 55.4 °F 53% 29.95 in 10.0 mi West 8.1 mph - N/A   Partly Cloudy
4:15 PM 73.4 °F 55.4 °F 53% 29.93 in 10.0 mi West 8.1 mph - N/A   Scattered Clouds
4:35 PM 73.4 °F 57.2 °F 57% 29.92 in 10.0 mi West 8.1 mph - N/A   Partly Cloudy
4:55 PM 73.4 °F 57.2 °F 57% 29.91 in 10.0 mi SW 8.1 mph - N/A   Scattered Clouds
5:15 PM 73.4 °F 57.2 °F 57% 29.91 in 10.0 mi West 6.9 mph - N/A   Partly Cloudy
5:35 PM 73.4 °F 57.2 °F 57% 29.90 in 10.0 mi WSW 5.8 mph - N/A   Scattered Clouds
5:55 PM 73.4 °F 57.2 °F 57% 29.90 in 10.0 mi WSW 8.1 mph - N/A   Mostly Cloudy
6:15 PM 73.4 °F 59.0 °F 61% 29.89 in 10.0 mi West 4.6 mph - N/A   Scattered Clouds
6:35 PM 73.4 °F 57.2 °F 57% 29.90 in 10.0 mi West 12.7 mph 18.4 mph N/A   Partly Cloudy
6:55 PM 73.4 °F 55.4 °F 53% 29.90 in 10.0 mi West 9.2 mph 16.1 mph N/A   Scattered Clouds
7:15 PM 73.4 °F 55.4 °F 53% 29.91 in 10.0 mi WNW 15.0 mph 20.7 mph N/A   Mostly Cloudy
7:35 PM 71.6 °F 55.4 °F 57% 29.90 in 10.0 mi WNW 8.1 mph - N/A   Partly Cloudy
7:55 PM 71.6 °F 53.6 °F 53% 29.89 in 10.0 mi West 4.6 mph - N/A   Clear
8:15 PM 69.8 °F 55.4 °F 60% 29.88 in 10.0 mi Calm Calm - N/A   Clear
8:35 PM 69.8 °F 55.4 °F 60% 29.88 in 10.0 mi SW 4.6 mph - N/A   Clear
8:55 PM 68.0 °F 55.4 °F 64% 29.87 in 10.0 mi SW 3.5 mph - N/A   Clear
9:15 PM 66.2 °F 55.4 °F 68% 29.86 in 10.0 mi SSW 4.6 mph - N/A   Clear
9:35 PM 64.4 °F 55.4 °F 73% 29.86 in 10.0 mi SSW 4.6 mph - N/A   Clear
9:55 PM 64.4 °F 53.6 °F 68% 29.92 in 10.0 mi NNW 24.2 mph 39.1 mph 0.01 in   Mostly Cloudy
10:15 PM 57.2 °F 51.8 °F 82% 29.92 in 10.0 mi North 10.4 mph - 0.05 in   Overcast
10:35 PM 57.2 °F 53.6 °F 88% 29.92 in 10.0 mi NW 9.2 mph - 0.05 in   Overcast
10:55 PM 57.2 °F 53.6 °F 88% 29.93 in 10.0 mi NW 8.1 mph - 0.05 in   Overcast
11:15 PM 59.0 °F 53.6 °F 82% 29.91 in 10.0 mi NW 6.9 mph - N/A   Overcast
11:35 PM 57.2 °F 53.6 °F 88% 29.89 in 10.0 mi NNW 8.1 mph - N/A   Overcast
11:55 PM 57.2 °F 53.6 °F 88% 29.90 in 10.0 mi WNW 8.1 mph - N/A   Overcast